Regional Weather Roundup
Issued by NWS New Orleans/Baton Rouge, LA

Home | Current Version | Previous Version | Text Only | Print | Product List | Glossary Off
Versions: 1 2 3 4 5 6 7 8 9 10 11 12 13 14 15 16 17 18 19 20 21 22 23 24 25 26 27 28 29 30 31 32 33 34 35 36 37 38 39 40 41 42 43 44 45 46 47 48 49 50

614
ASUS44 KLIX 232005
RWRLIX
NEW ORLEANS REGIONAL WEATHER ROUNDUP
NATIONAL WEATHER SERVICE NEW ORLEANS LA
300 PM CDT WED JUL 23 2014

NOTE: "FAIR" INDICATES FEW OR NO CLOUDS BELOW 12,000 FEET WITH NO
      SIGNIFICANT WEATHER AND/OR OBSTRUCTIONS TO VISIBILITY.
      SKY/WX - SKY CONDITION AND SIGNIFICANT WEATHER.
      TMP - AIR TEMPERATURE.     DP    - DEWPOINT TEMPERATURE.
      RH  - RELATIVE HUMIDITY.   PRES  - PRESSURE.
      HI  - HEAT INDEX.          WCI   - WIND CHILL INDEX.

*  THESE STATIONS ARE NOT NWS OR FAA STATIONS AND ARE NOT UNDER
   NWS QUALITY CONTROL.

LAZ038-040-048-061>063-065>067-069-232100-
SOUTHEAST LOUISIANA

CITY           SKY/WX    TMP DP  RH WIND       PRES   REMARKS
N.O. AUDUBON     N/A     82  73  74 MISG        N/A
N.O. INTL ARPT CLOUDY    83  73  72 VRB5      30.02F
N.O. LAKEFRONT CLOUDY    82  71  69 S5        30.03F
N.O. DOWNTOWN*   N/A     82  68  61 S6        30.03F
SLIDELL        PTSUNNY   83  72  69 S9        30.02F
BATON ROUGE    PTSUNNY   91  71  51 MISG      30.00F HX  97
BOOTHVILLE       N/A     81  72  74 SW6       30.03F
BELLE CHASSE   CLOUDY    81  73  76 S7        30.02F
BOGALUSA*        N/A     86  68  55 S3        30.03F
GALLIANO*      NOT AVBL
NEW ROADS*       N/A     88  72  59 N7        30.02F
GONZALES*        N/A     85  74  71 CALM      30.00F
HAMMOND*       MOSUNNY   88  68  51 SE7       30.02F
HOUMA*         PTSUNNY   81  72  74 SE9       30.03F
PORT FOURCHON* CLEAR     77  73  88 S7        30.04F

$$

MSZ070-080>082-232100-
SOUTHERN MISSISSIPPI

CITY           SKY/WX    TMP DP  RH WIND       PRES   REMARKS
MCCOMB         PTSUNNY   87  68  52 SE6       30.03F
GULFPORT       CLOUDY    85  71  63 S3        30.02F
BILOXI         CLOUDY    81  74  77 SW6       30.03F
PASCAGOULA     CLOUDY    80  74  81 CALM      30.04F
STENNIS ARPT*  MOSUNNY  N/A N/A N/A CALM      30.03F

$$

COASTAL OBSERVATIONS
LAKE AND NEARSHORE STATIONS

STATION/POSITION TIME  TEMP    WIND        PRES    WAVE
                       AIR SEA DIR/SP/G            HT/PER
                 (UTC) (F)     (DEG/KT/KT) (MB)    (FT/S)
PASCAGOULA       1900   80     180/  6/  8 1017.4
WAVELAND YACHT   2000   81     170/  9/ 11 1016.4
GRAND ISLE       2000   81 84   90/  5/  8 1017.2
SOUTHWEST PASS   2000   85 85  190/  2/  4 1017.1
NEW CANAL        2000   83 82  160/  3/  6 1017.1
SHELL BEACH      2000   79 80  180/  4/  6 1016.8

OFFSHORE STATIONS

STATION/POSITION TIME  TEMP    WIND        PRES    WAVE
                       AIR SEA DIR/SP/G            HT/PER
                 (UTC) (F)     (DEG/KT/KT) (MB)    (FT/S)
64 S DAUPHIN ISL 1901   80 86  310/  4/  6 1017.5

$$




USA.gov is the U.S. government's official web portal to all federal, state and local government web resources and services.